Simultaneous Nadir Overpasses (SNOs) Predictions

Prediction of SNOs between LANDSAT-8 and NOAA-19 Satellite Orbit:

Table of predicted SNOs for the next 14.0 days since TLE Epoch: 11/14/2015
Index Date (LANDSAT-8) Time (LANDSAT-8) Lat,Lon (LANDSAT-8) SZA (LANDSAT-8 ) Date (NOAA-19) Time (NOAA-19) Lat,Lon (NOAA-19) SZA (NOAA-19 ) Distance(km) Time Diff (sec)
1 11/15/2015 09:38:02 73.82, 38.27 92.28 11/15/2015 09:37:49 73.80, 38.27 92.26 2.27 13
2 11/15/2015 10:27:31 -73.75,-154.26 87.80 11/15/2015 10:28:45 -73.72,-154.26 87.82 3.44 74
3 11/17/2015 14:22:18 73.95, -32.53 92.96 11/17/2015 14:21:06 74.00, -32.98 92.98 15.00 72
4 11/17/2015 15:11:49 -73.77, 134.72 87.22 11/17/2015 15:12:00 -73.79, 134.80 87.20 2.91 11
5 11/19/2015 19:56:06 -73.84, 63.80 86.64 11/19/2015 19:55:15 -73.86, 63.85 86.62 2.84 51
6 11/19/2015 20:45:33 73.76,-128.74 93.29 11/19/2015 20:46:17 73.79,-128.73 93.33 3.64 44
7 11/22/2015 01:29:49 73.87, 160.42 93.89 11/22/2015 01:29:31 73.85, 160.35 93.88 2.72 18
8 11/22/2015 02:19:19 -73.75, -32.20 86.23 11/22/2015 02:20:29 -73.78, -32.21 86.19 3.15 70
9 11/24/2015 06:14:02 74.12, 89.93 94.62 11/24/2015 06:12:51 74.21, 88.66 94.67 39.55 71
10 11/24/2015 07:03:36 -73.80,-103.16 85.72 11/24/2015 07:03:43 -73.82,-103.07 85.70 3.30 7
11 11/26/2015 11:47:52 -73.90,-174.03 85.19 11/26/2015 11:46:58 -73.91,-174.06 85.18 1.67 54
12 11/26/2015 12:37:19 73.81, -6.59 94.73 11/26/2015 12:37:58 73.83, -6.62 94.76 3.10 39




NCC Satellite Simultaneous Nadir Overpasses (SNOs) Prediction Service
